Find Starlink 6345

NORAD ID: 56790 Int'l Des: 2023-078 Owner: SPXS Country: US Constellation: starlink operational
LEOCIRCULAR

当前视图

正在加载3D地球...

About Starlink 6345

Starlink 6345 (NORAD 56790) is a starlink constellation satellite (v1.5) launched May 31, 2023 by SPXS of US. It operates in LEO, CIRCULAR orbit with a mass of 305.00 kg.

关于 Starlink 6345

正在加载描述...

即将过境

Passes for default location (London). Set your location on the main map for personalized predictions.

高度历史

Loading altitude history...

两行轨道根数

1 56790U 23078Z 26169.95348376 .00000229 00000-0 26989-4 0 9997
2 56790 70.0000 49.1820 0003179 267.8799 92.1996 14.98332977168833
Epoch: Jun 18, 2026 • Age: 7 hours

当前状态

高度 579.6 km
速度 7.57 km/s
星下点 43.80°N, 147.59°W
发射日期 May 31, 2023
运行时间 3 years
类型 internet

技术详情

分类 Payload
质量 305.00 kg
干质量 290.00 kg
总质量 305.00 kg
长度 0.20 m
直径 2.80 m
跨度 9.00 m
形状 Box + pan
制造商 SPXS
平台类型 Starlink
阶段状态 In Orbit
所有者/国家 SPXS/US

Most Searched